Back to catalog

FENGYUN 1C DEB

AliveSSO
NORAD 31882·DEBRIS·🇨🇳 China

Launched May 10, 1999 from Taiyuan Satellite Launch Center

Loading…

Next Passes (next 24 hours)

TLE

FreshSource: Space-Track

Epoch: Sep 14, 2026, 12:53 UTC

1 31882U 99025CKH 26257.53734620  .00000679  00000-0  38175-3 0  9998
2 31882  98.9209 184.2038 0035560 161.8030 198.4423 14.13541410625328

Track FENGYUN 1C DEB in real time with AllMySat

Download on the App Store